Wind_Speed
9 7 7 7 6 5 5 6 8 9 7 7 6 6 6 5 3 2 1 1 1 1 1 2 2 3 4 5 6 6 6 7 7 7 7 7 7 6 6 4 3 1 2 4 7 9 11 13 15
8 6 5 6 6 5 6 8 9 8 8 7 7 7 6 5 3 2 1 0 1 1 2 2 2 2 2 3 3 3 4 4 5 5 6 6 6 6 6 5 4 3 1 2 4 5 7 10 11
6 4 5 6 6 6 8 9 10 9 9 8 7 7 6 4 3 2 2 2 2 2 3 4 4 4 3 3 2 2 1 1 2 3 3 3 4 4 5 5 5 4 3 1 1 3 5 6 6
4 3 5 6 6 7 8 9 9 9 9 8 7 7 6 5 4 3 4 3 4 4 4 5 6 6 6 6 6 5 3 2 2 2 2 2 2 2 3 3 4 4 4 3 2 1 2 3 4
2 2 4 6 7 7 7 7 9 9 9 9 9 7 6 5 4 4 5 5 5 5 6 6 7 8 9 9 9 9 8 7 6 5 4 4 3 2 2 1 2 3 4 4 4 3 2 2 3
3 4 5 6 6 5 5 6 7 8 9 10 10 9 8 6 5 5 6 7 7 7 8 9 9 10 11 12 12 12 12 11 10 9 8 7 7 6 4 3 2 0 2 2 3 3 3 4 4
5 6 6 7 6 4 6 7 8 8 9 10 11 11 10 9 8 7 7 8 9 10 10 11 12 13 14 15 15 15 15 15 14 13 12 11 10 9 8 7 5 4 2 1 1 2 3 4 5
7 6 7 8 8 7 9 9 12 12 12 12 13 13 12 12 12 12 11 11 12 13 14 14 15 16 16 18 18 18 18 18 17 16 15 14 13 12 11 11 9 8 6 5 4 3 3 3 4
8 8 9 10 11 11 12 12 14 16 16 16 16 16 16 16 16 16 16 16 16 16 16 17 18 18 19 20 20 21 21 20 20 20 18 17 17 16 15 14 13 12 11 9 8 7 5 4 4
10 10 11 12 14 16 16 16 17 18 19 20 20 20 20 21 21 21 22 22 22 22 21 21 21 22 22 23 23 22 22 22 22 21 21 20 20 19 19 18 16 16 15 13 12 11 9 8 7
11 12 13 14 16 18 19 20 20 22 23 24 24 25 25 25 26 26 27 27 27 27 27 28 27 26 26 26 26 25 24 24 23 23 23 23 23 22 22 22 21 20 19 18 16 15 13 12 11
14 15 16 17 19 20 22 23 23 24 25 26 27 28 28 29 29 30 30 31 31 32 32 33 33 32 32 31 30 29 27 26 26 26 25 25 26 25 25 25 24 24 24 22 21 19 18 16 14
17 18 19 20 22 23 24 25 25 25 26 28 29 29 30 31 31 32 33 34 34 35 35 36 37 37 36 36 35 34 32 31 30 28 27 27 27 26 26 27 26 26 27 26 25 23 21 20 19
19 20 21 22 23 24 24 25 25 26 28 29 30 30 31 31 31 32 33 34 35 36 36 37 38 39 39 39 39 38 37 36 36 34 32 30 29 29 28 27 26 27 28 29 28 26 25 24 22
20 21 22 23 23 23 24 25 26 28 29 30 31 31 30 30 31 31 32 33 34 35 36 37 37 38 38 39 40 40 39 39 38 38 37 36 35 33 32 30 29 29 29 30 30 30 29 27 26
22 22 23 23 24 24 26 26 26 28 29 30 31 30 30 29 29 30 30 31 32 33 34 35 35 35 36 37 38 39 39 39 39 40 40 39 38 37 35 33 32 31 30 30 31 32 32 30 28
22 22 23 24 25 25 25 26 26 27 29 30 29 29 29 28 28 28 29 30 31 32 33 34 34 34 34 35 35 36 37 38 38 39 40 40 40 40 39 37 35 33 32 32 32 32 32 31 31
21 23 24 25 26 26 26 26 26 26 27 27 27 27 27 27 28 29 29 30 31 31 32 32 34 35 35 36 36 37 37 38 38 37 38 39 39 40 40 40 39 37 35 34 34 33 33 33 32
20 22 24 25 25 26 26 25 24 24 23 24 24 25 25 26 27 28 28 28 28 29 30 30 31 32 32 33 34 35 37 38 38 38 37 38 38 39 40 40 40 40 39 37 35 34 34 33 33
18 20 22 24 24 25 24 22 21 19 19 20 21 22 23 24 25 25 26 26 27 27 27 26 26 27 28 30 31 32 34 35 35 36 37 38 38 38 39 40 40 41 40 39 38 37 36 33 32
16 19 21 22 23 23 21 19 16 15 16 17 18 20 21 22 23 23 24 24 23 23 23 22 23 23 24 25 26 27 29 31 32 33 33 34 36 37 38 39 40 41 41 41 41 39 39 36 34
16 17 19 20 20 19 19 16 15 15 16 16 18 19 20 21 21 21 21 20 20 19 18 18 18 19 19 20 21 22 23 25 27 29 31 33 34 35 37 38 40 41 42 42 42 43 41 39 37
13 15 16 17 17 17 15 14 14 16 17 18 18 19 19 20 19 19 20 19 17 16 16 15 15 16 17 17 17 18 19 20 22 25 28 31 32 34 36 37 39 41 41 42 42 43 43 42 40
12 14 15 15 15 14 13 13 14 16 18 18 19 19 18 19 19 19 19 18 17 16 16 16 16 16 16 16 15 15 15 16 18 19 21 24 27 30 33 35 36 39 40 41 42 43 43 42 42
11 13 13 14 13 13 13 13 14 16 17 18 18 17 17 18 18 19 18 18 18 18 17 17 17 17 17 16 14 14 14 14 14 14 16 18 20 23 26 29 32 35 38 40 41 42 43 42 42
10 12 13 14 14 13 13 13 14 15 16 16 16 16 17 17 18 18 18 19 19 19 19 19 19 18 18 17 16 14 14 13 12 12 12 13 15 17 20 24 26 29 33 36 38 41 41 41 40
11 13 14 15 15 15 13 13 13 13 14 14 15 16 17 18 18 18 19 20 20 20 21 21 21 21 20 18 17 16 14 13 12 11 10 10 9 11 15 17 21 23 26 30 34 38 40 41 41
12 13 14 15 15 15 14 14 14 14 13 13 15 16 17 18 18 18 18 19 20 21 21 21 22 22 21 20 19 18 16 15 13 12 11 10 9 7 8 11 14 18 22 25 29 34 37 39 41
11 13 14 15 15 15 14 15 15 14 14 14 15 16 17 18 18 18 18 18 19 21 22 21 22 22 22 21 21 20 18 17 16 14 12 11 10 9 7 7 9 12 16 19 23 29 34 36 38
11 12 13 14 15 15 14 14 14 14 14 15 16 17 17 17 17 17 17 18 19 20 21 22 22 23 22 21 21 20 19 18 17 16 14 12 11 10 9 7 7 7 11 15 19 22 27 31 34
Wind_Direction
68 69 57 34 22 14 17 33 38 42 36 28 18 11 20 20 2 344 40 106 127 171 164 143 121 106 99 95 87 77 69 64 60 58 58 57 57 58 59 56 49 14 243 237 233 233 235 236 236
61 61 49 18 9 17 26 42 39 32 29 29 17 7 11 13 355 345 351 301 282 265 251 234 213 181 148 130 114 93 75 64 55 52 52 53 53 53 54 54 50 39 357 259 240 234 235 235 234
72 55 36 358 1 21 35 42 43 27 24 22 12 9 9 5 347 322 304 283 278 276 269 263 255 244 234 221 202 176 119 60 41 35 34 37 42 46 48 50 52 50 46 29 245 230 226 228 226
69 24 2 345 3 16 30 36 36 31 20 10 6 9 5 358 342 317 303 289 279 272 267 266 265 260 254 250 246 244 244 254 279 304 322 337 355 18 31 41 49 53 55 53 59 123 193 201 197
33 333 329 349 8 6 16 24 20 17 4 355 355 352 352 348 340 324 307 298 291 282 274 266 262 260 259 256 254 253 253 254 259 267 274 280 283 289 305 360 36 51 57 61 67 76 97 132 149
325 328 332 347 356 348 352 4 5 357 346 342 340 336 333 333 329 320 303 296 289 279 270 264 258 254 254 254 254 255 255 256 258 260 263 266 267 267 265 265 275 352 53 64 77 83 92 105 120
311 319 320 323 325 304 321 334 335 330 330 327 324 321 322 318 313 303 294 287 287 282 275 268 261 255 251 250 250 252 255 256 258 258 259 261 262 262 260 257 253 248 240 218 130 110 109 115 120
295 309 306 307 307 308 321 323 325 324 323 317 312 311 309 306 302 297 290 284 283 282 278 274 267 262 257 253 250 249 250 253 254 255 256 257 258 258 258 256 254 249 242 235 226 206 167 146 142
299 299 298 299 297 307 314 313 315 312 310 308 307 304 302 297 293 290 288 283 277 274 273 271 269 266 263 259 256 254 250 249 251 250 251 253 254 255 256 256 254 251 245 240 234 228 217 198 178
297 297 296 293 292 300 306 306 307 305 303 302 299 296 293 290 288 285 282 278 276 272 270 268 266 267 266 263 261 258 255 253 251 249 250 251 253 254 253 254 254 252 247 241 237 233 228 221 211
290 290 291 291 292 298 302 303 303 302 300 297 295 292 290 287 284 282 280 278 275 273 270 267 265 263 262 262 263 262 261 259 256 252 251 251 252 252 252 252 252 251 247 242 239 235 233 229 223
289 291 294 295 297 300 301 302 301 298 295 294 292 291 289 286 284 282 280 278 275 273 270 268 265 262 261 260 260 259 261 262 262 259 253 252 251 252 252 254 252 249 246 243 240 238 235 232 229
291 295 298 300 302 302 302 300 298 295 295 294 293 291 290 289 287 285 282 280 277 275 272 270 268 266 264 263 261 260 259 259 260 261 258 257 253 252 256 257 254 251 247 243 240 239 237 235 232
293 297 300 302 302 301 299 297 296 298 299 298 296 295 294 292 289 286 283 280 278 276 274 272 271 270 268 267 265 263 261 259 259 259 260 259 258 256 255 256 255 255 250 243 239 239 239 238 236
294 299 301 301 298 298 299 297 297 300 301 300 300 298 296 293 289 286 284 282 280 278 276 274 273 271 270 269 268 266 264 262 260 259 258 258 258 260 259 257 255 256 254 247 243 239 238 238 237
299 300 300 298 298 300 301 300 303 305 305 305 303 300 297 295 292 290 287 284 282 280 278 277 275 274 272 270 269 267 265 263 260 258 257 257 256 256 257 259 256 255 252 251 248 245 241 238 238
298 298 301 302 306 309 309 309 309 310 309 308 306 303 301 299 296 294 291 288 285 283 280 278 276 275 274 272 271 269 267 265 262 259 257 256 254 254 254 256 256 256 253 252 251 249 244 241 240
302 306 309 312 313 312 312 313 315 315 314 311 309 308 306 303 300 298 295 292 290 287 284 281 279 277 276 273 271 269 267 266 264 261 258 256 254 253 252 253 253 253 254 253 249 249 247 244 242
308 311 313 313 312 311 312 314 318 318 316 313 312 312 310 308 306 304 301 298 296 293 290 286 283 280 277 275 273 271 269 267 265 262 259 257 254 253 251 251 251 251 251 251 248 247 248 248 246
312 312 312 311 312 312 315 319 322 322 319 317 317 317 315 313 312 310 308 305 302 299 297 293 290 286 283 280 276 273 270 268 265 263 260 257 255 253 251 249 249 248 248 247 246 245 246 248 248
312 313 313 314 316 317 320 326 328 328 327 327 328 326 324 324 323 321 317 314 310 307 304 300 296 294 291 287 283 279 273 268 265 263 261 259 256 253 251 249 248 247 246 245 244 243 244 246 247
315 317 318 319 321 322 326 332 338 339 340 342 340 339 337 337 336 335 333 329 325 322 319 315 311 306 301 296 292 287 279 273 269 265 263 261 258 255 252 250 248 247 246 245 245 244 244 243 243
325 327 327 327 327 326 333 339 347 348 351 352 351 351 349 350 351 350 347 344 341 339 338 336 331 324 316 308 303 298 290 282 276 271 266 263 259 256 253 250 248 245 244 243 243 243 243 241 240
340 340 340 339 338 339 346 351 356 359 360 0 1 1 360 1 0 358 358 360 359 357 355 353 349 344 337 329 319 313 307 295 286 279 274 267 262 257 253 250 247 244 243 241 240 240 239 240 239
355 354 354 355 356 359 2 6 6 6 5 4 5 6 8 8 7 7 9 10 10 9 7 3 360 355 351 345 337 330 327 316 304 295 285 277 269 260 253 249 246 243 241 239 239 238 236 236 237
13 11 11 11 12 15 17 18 13 13 12 11 13 15 15 15 13 12 14 15 14 14 13 10 7 4 1 359 356 350 346 341 330 317 306 292 277 265 256 250 245 242 240 238 238 236 233 232 234
27 26 24 24 25 28 29 27 26 23 22 21 22 22 21 19 19 19 19 19 20 20 19 17 16 14 13 12 8 4 1 358 354 345 333 320 298 275 260 251 244 242 241 238 236 234 232 231 231
39 36 35 33 32 34 37 37 36 34 33 30 27 24 22 20 20 20 20 22 23 22 21 20 20 21 21 20 19 16 12 9 4 0 357 351 337 315 285 263 252 245 243 241 237 234 232 231 231
45 41 40 40 40 41 41 40 40 40 38 34 27 23 19 18 19 19 20 20 21 20 20 20 19 18 18 18 19 19 17 15 14 12 7 0 358 353 334 298 270 254 246 243 240 237 235 233 232
51 45 41 39 39 40 40 40 38 37 35 31 26 22 19 18 18 18 18 18 18 18 18 18 18 18 18 18 17 16 16 15 13 12 10 6 360 356 350 334 308 281 259 250 245 241 238 238 237
Height
5935 5934 5934 5935 5935 5934 5933 5932 5931 5930 5930 5929 5927 5927 5927 5927 5926 5927 5924 5922 5922 5922 5921 5921 5920 5920 5919 5919 5919 5919 5918 5918 5917 5916 5915 5915 5914 5913 5912 5911 5911 5910 5909 5909 5908 5908 5907 5907 5907
5937 5936 5936 5936 5935 5934 5934 5932 5931 5931 5930 5929 5928 5927 5927 5926 5925 5924 5923 5923 5922 5922 5922 5921 5921 5921 5920 5920 5920 5919 5919 5918 5918 5917 5916 5916 5915 5914 5913 5912 5911 5910 5909 5908 5908 5907 5906 5906 5905
5938 5937 5937 5937 5935 5935 5934 5932 5932 5930 5929 5929 5929 5928 5927 5926 5925 5923 5923 5922 5922 5922 5921 5921 5921 5921 5921 5920 5920 5920 5919 5919 5918 5918 5917 5916 5915 5915 5914 5913 5912 5911 5910 5908 5908 5906 5906 5905 5905
5940 5939 5939 5938 5936 5934 5933 5932 5932 5931 5930 5929 5929 5928 5927 5927 5925 5923 5922 5922 5921 5921 5921 5920 5920 5920 5920 5920 5920 5919 5919 5918 5918 5917 5917 5916 5916 5915 5914 5913 5912 5911 5910 5909 5908 5907 5906 5905 5904
5940 5940 5940 5938 5936 5934 5933 5932 5932 5931 5930 5929 5928 5927 5926 5926 5925 5923 5921 5921 5920 5920 5919 5919 5919 5919 5919 5919 5918 5918 5918 5917 5917 5916 5916 5915 5915 5914 5914 5913 5913 5912 5911 5910 5908 5907 5906 5906 5905
5941 5940 5939 5937 5936 5934 5932 5932 5932 5931 5930 5928 5927 5927 5925 5925 5924 5922 5921 5919 5919 5918 5917 5917 5917 5916 5916 5916 5916 5916 5916 5915 5915 5915 5914 5914 5914 5913 5913 5913 5912 5912 5911 5910 5909 5908 5907 5907 5906
5941 5939 5938 5937 5936 5934 5932 5930 5930 5930 5929 5928 5926 5925 5924 5923 5922 5921 5919 5917 5916 5915 5915 5914 5914 5913 5913 5912 5912 5912 5912 5912 5912 5912 5912 5912 5912 5911 5911 5911 5911 5911 5911 5911 5910 5909 5908 5908 5907
5940 5940 5938 5937 5935 5933 5931 5929 5928 5927 5927 5926 5925 5923 5922 5921 5919 5918 5917 5916 5914 5913 5911 5911 5910 5909 5909 5909 5908 5908 5908 5908 5908 5909 5909 5909 5909 5909 5909 5909 5909 5910 5910 5910 5910 5909 5909 5908 5908
5940 5940 5938 5937 5934 5932 5930 5928 5926 5925 5925 5923 5922 5921 5919 5918 5916 5915 5914 5913 5911 5910 5908 5907 5906 5905 5905 5904 5904 5903 5903 5903 5904 5904 5905 5905 5906 5906 5906 5906 5907 5907 5908 5908 5908 5908 5908 5908 5908
5938 5938 5937 5935 5933 5931 5929 5927 5925 5923 5921 5920 5919 5917 5916 5914 5912 5911 5909 5908 5907 5905 5904 5903 5902 5901 5900 5899 5899 5898 5898 5898 5899 5899 5900 5901 5901 5902 5902 5902 5903 5904 5905 5905 5906 5907 5907 5907 5907
5936 5935 5934 5932 5930 5928 5926 5924 5921 5919 5918 5916 5914 5912 5911 5909 5907 5906 5904 5902 5901 5899 5898 5897 5896 5895 5895 5894 5893 5893 5893 5893 5894 5894 5895 5896 5896 5897 5897 5898 5899 5900 5901 5902 5903 5904 5904 5905 5905
5933 5931 5930 5929 5927 5924 5922 5920 5918 5915 5913 5911 5908 5906 5904 5902 5901 5899 5897 5895 5893 5892 5890 5889 5888 5887 5887 5887 5887 5887 5887 5887 5888 5888 5889 5889 5890 5891 5892 5893 5893 5894 5896 5897 5899 5900 5901 5902 5903
5929 5927 5926 5924 5922 5920 5917 5915 5913 5909 5907 5904 5902 5899 5897 5895 5893 5891 5889 5886 5884 5883 5881 5880 5879 5879 5879 5879 5880 5880 5881 5881 5882 5882 5882 5883 5884 5885 5886 5886 5887 5888 5889 5891 5893 5895 5897 5898 5899
5926 5924 5923 5921 5918 5915 5913 5910 5907 5904 5901 5898 5895 5892 5890 5888 5885 5882 5880 5877 5875 5874 5872 5871 5870 5869 5869 5869 5870 5871 5872 5873 5874 5875 5876 5876 5877 5878 5879 5880 5881 5882 5883 5885 5887 5889 5891 5893 5894
5922 5921 5919 5916 5914 5911 5909 5906 5902 5898 5894 5891 5888 5885 5883 5880 5877 5874 5872 5869 5867 5865 5863 5861 5860 5860 5859 5859 5859 5860 5861 5863 5865 5866 5867 5869 5870 5871 5872 5873 5874 5876 5877 5878 5880 5882 5885 5887 5889
5918 5917 5914 5911 5909 5907 5906 5901 5897 5892 5888 5884 5880 5877 5875 5872 5869 5866 5864 5861 5858 5856 5854 5852 5851 5850 5850 5849 5849 5849 5850 5851 5853 5855 5857 5859 5861 5862 5864 5866 5867 5869 5870 5872 5873 5875 5877 5880 5882
5914 5912 5909 5907 5903 5901 5898 5894 5891 5887 5882 5878 5874 5871 5867 5865 5862 5859 5856 5853 5850 5848 5846 5844 5842 5841 5840 5840 5839 5839 5839 5840 5842 5844 5846 5848 5850 5853 5855 5857 5859 5861 5863 5865 5866 5868 5870 5872 5875
5910 5907 5904 5901 5898 5895 5892 5889 5885 5881 5877 5872 5868 5865 5862 5859 5855 5852 5849 5845 5842 5840 5837 5835 5833 5832 5831 5830 5830 5829 5829 5830 5831 5832 5834 5836 5839 5842 5844 5847 5849 5852 5854 5856 5858 5860 5862 5864 5867
5906 5903 5899 5896 5893 5890 5887 5884 5880 5876 5872 5868 5863 5860 5856 5853 5849 5845 5841 5838 5835 5831 5829 5826 5825 5823 5821 5820 5820 5819 5819 5819 5820 5821 5823 5825 5828 5830 5833 5836 5839 5842 5845 5847 5849 5851 5854 5856 5859
5902 5899 5896 5892 5889 5886 5883 5880 5876 5872 5868 5864 5860 5856 5852 5848 5843 5839 5835 5831 5828 5824 5822 5819 5817 5815 5813 5811 5810 5809 5809 5809 5809 5810 5812 5813 5816 5819 5822 5825 5828 5831 5834 5837 5840 5843 5846 5848 5851
5899 5896 5893 5889 5885 5881 5879 5876 5873 5869 5865 5861 5857 5853 5848 5844 5839 5835 5830 5826 5822 5818 5815 5812 5810 5808 5805 5803 5801 5800 5799 5799 5799 5800 5801 5802 5804 5807 5810 5813 5816 5820 5823 5827 5830 5833 5837 5839 5842
5897 5893 5889 5885 5882 5879 5876 5873 5870 5866 5862 5858 5854 5849 5845 5840 5836 5831 5826 5822 5818 5814 5811 5807 5804 5802 5799 5797 5795 5793 5792 5791 5791 5791 5791 5792 5794 5796 5798 5802 5805 5808 5812 5816 5819 5823 5826 5830 5833
5894 5891 5887 5883 5880 5877 5874 5871 5868 5864 5859 5855 5851 5847 5842 5838 5833 5829 5825 5820 5816 5812 5808 5805 5801 5798 5795 5792 5790 5787 5785 5784 5783 5782 5782 5782 5783 5785 5787 5790 5793 5796 5800 5804 5808 5812 5816 5820 5824
5892 5889 5885 5882 5879 5876 5872 5869 5866 5861 5857 5853 5849 5845 5841 5837 5833 5828 5824 5820 5815 5811 5807 5804 5800 5796 5792 5789 5786 5783 5780 5778 5777 5775 5774 5774 5774 5774 5776 5779 5781 5785 5788 5792 5796 5800 5805 5809 5814
5891 5889 5885 5881 5878 5875 5871 5867 5864 5860 5856 5852 5849 5845 5841 5837 5833 5829 5825 5820 5816 5812 5807 5803 5799 5795 5791 5787 5783 5780 5777 5775 5772 5770 5768 5767 5766 5766 5767 5769 5771 5774 5777 5781 5785 5789 5794 5798 5803
5891 5888 5885 5882 5877 5874 5870 5866 5864 5860 5856 5853 5849 5846 5842 5838 5834 5830 5826 5822 5817 5812 5808 5803 5799 5795 5790 5786 5782 5778 5775 5772 5769 5766 5764 5762 5761 5760 5760 5761 5762 5764 5767 5770 5774 5778 5783 5788 5793
5890 5887 5884 5881 5877 5873 5870 5867 5863 5860 5857 5854 5850 5847 5843 5839 5836 5832 5827 5823 5818 5814 5809 5804 5800 5795 5790 5786 5782 5778 5774 5771 5768 5765 5762 5759 5757 5755 5755 5755 5755 5757 5759 5761 5764 5768 5773 5778 5782
5890 5887 5884 5881 5877 5874 5871 5868 5865 5861 5858 5855 5852 5848 5844 5841 5837 5833 5829 5824 5820 5815 5810 5806 5801 5796 5791 5787 5782 5778 5774 5771 5767 5764 5761 5758 5755 5753 5751 5751 5751 5751 5753 5754 5757 5760 5763 5768 5772
5891 5888 5885 5882 5878 5875 5872 5871 5866 5863 5859 5856 5853 5849 5845 5842 5838 5834 5830 5826 5821 5817 5812 5807 5802 5798 5793 5788 5784 5779 5775 5771 5767 5764 5760 5758 5755 5752 5750 5749 5748 5748 5748 5749 5751 5753 5756 5759 5763
5891 5888 5886 5883 5880 5876 5873 5874 5867 5864 5860 5857 5854 5850 5846 5843 5839 5835 5832 5827 5823 5818 5814 5809 5804 5799 5794 5789 5785 5780 5776 5772 5768 5764 5761 5758 5755 5752 5750 5748 5746 5745 5745 5745 5746 5747 5749 5752 5755